Location: Grange Rosano
(44.4500°N, 6.9667°E)
Time: 19:50:50
(UTC+00:00)

ATLAS 5 CENTAUR R/B - Pass Details

Date: 26 May 2022
Orbit: 342 x 13895 km, 60.8° (Epoch: 01 July)

Event Time Altitude Azimuth Distance (km) Brightness Sun altitude
Rises 00:07:35 0° 317° (NW) 8,310 8.3 -23.9°
Reaches altitude 10° 00:15:07 10° 317° (NW) 5,410 7.3 -23.6°
Maximum altitude 00:26:09 70° 237° (WSW) 955 2.7 -23.2°
Enters shadow 00:26:59 57° 181° (S) 940 2.6 -23.1°
